Find Starlink 33816

NORAD ID: 63677 Int'l Des: 2025-085 Owner: SPXS Country: US Constellation: starlink operational
LEOCIRCULAR

当前视图

正在加载3D地球...

About Starlink 33816

Starlink 33816 (NORAD 63677) is a starlink constellation satellite (v2 mini) launched Apr 28, 2025 by SPXS of US. It operates in LEO, CIRCULAR orbit with a mass of 575.00 kg.

关于 Starlink 33816

正在加载描述...

即将过境

Passes for default location (London). Set your location on the main map for personalized predictions.

高度历史

Loading altitude history...

两行轨道根数

1 63677U 25085P 26171.05483516 .00012482 00000-0 46214-3 0 9995
2 63677 43.0038 172.9615 0001749 278.6765 81.3889 15.27593971 64626
Epoch: Jun 20, 2026 • Age: 27 hours

当前状态

高度 483.0 km
速度 7.63 km/s
星下点 -5.10°S, 167.55°W
发射日期 Apr 28, 2025
运行时间 1.1 years
类型 internet

技术详情

分类 Payload
质量 575.00 kg
干质量 530.00 kg
总质量 575.00 kg
长度 0.30 m
直径 4.10 m
跨度 29.00 m
形状 Box + pan
制造商 SPXS
平台类型 Starlink V2MO
阶段状态 In Orbit
所有者/国家 SPXS/US

Most Searched